Location: Borgo
(42.3939°N, 9.2791°E)
Time: 19:09:25
(UTC+00:00)

MOS 1 Rocket - Pass Details

Date: 24 January 2021
Orbit: 614 x 830 km, 97.4° (Epoch: 03 March)

Event Time Altitude Azimuth Distance (km) Brightness Sun altitude
Rises 17:02:02 0° 21° (NNE) 2,900 6.1 -6.9°
Reaches altitude 10° 17:04:25 10° 32° (NNE) 1,983 5.2 -7.3°
Maximum altitude 17:08:17 32° 96° (E) 1,053 3.8 -8.0°
Drops below altitude 10° 17:12:10 10° 161° (SSE) 1,987 5.7 -8.6°
Sets 17:14:32 0° 171° (S) 2,907 6.6 -9.0°
